Overview Statistics Trail Chart Weather Telemetry Raw packets
 

This is the latest recevied weather packets stored in our database for station/object K1TTC. If no packets are shown the sender has not sent any weather packets the latest 10 day(s).

<< 44 45 46 47 48 49 50 >>
Time Temp. Humidity Pressure Rain* Wind** Luminosity Snow
1787948896 30° C 50% 1016 hPa 0 mm - 123 W/m² -
1787948284 30° C 48% 1015.8 hPa 0 mm - 88 W/m² -
1787947684 30.56° C 49% 1015.6 hPa 0 mm - 480 W/m² -
1787947185 30.56° C 49% 1015.9 hPa 0 mm - 540 W/m² -
1787946484 31.11° C 50% 1016 hPa 0 mm - 589 W/m² -
1787945883 30.56° C 50% 1016.1 hPa 0 mm - 633 W/m² -
1787945283 30.56° C 52% 1016.1 hPa 0 mm - 577 W/m² -
1787944686 30.56° C 54% 1016.2 hPa 0 mm - 701 W/m² -
1787944082 30.56° C 53% 1016.3 hPa 0 mm - 352 W/m² -
1787943484 30° C 54% 1016.6 hPa 0 mm - 712 W/m² -
1787942882 30° C 55% 1016.7 hPa 0 mm - 666 W/m² -
1787942282 29.44° C 55% 1016.8 hPa 0 mm - 659 W/m² -
1787941683 29.44° C 57% 1016.8 hPa 0 mm - 791 W/m² -
1787941082 28.89° C 58% 1016.7 hPa 0 mm - 837 W/m² -
1787940481 28.89° C 57% 1016.9 hPa 0 mm - 186 W/m² -
1787939879 28.89° C 58% 1016.9 hPa 0 mm - 888 W/m² -
1787939280 28.89° C 57% 1016.9 hPa 0 mm - 383 W/m² -
1787938679 28.33° C 58% 1017 hPa 0 mm - 592 W/m² -
1787938189 28.33° C 59% 1017.2 hPa 0 mm - 932 W/m² -
1787937476 27.78° C 61% 1017.1 hPa 0 mm - 1000 W/m² -
1787936875 27.22° C 62% 1017.2 hPa 0 mm - 446 W/m² -
1787936276 27.22° C 61% 1017.3 hPa 0 mm - 308 W/m² -
1787935669 27.22° C 61% 1017.3 hPa 0 mm - 218 W/m² -
1787935069 27.22° C 61% 1017.3 hPa 0 mm - 397 W/m² -
1787934469 27.78° C 61% 1017.3 hPa 0 mm - 624 W/m² -

* Rain latest hour (hover to see other rain measurements)
** Current wind speed in m/s (hover to see current wind gust speed)